TOM7FX EGBB-GMMX

Flight info

Callsign TOM7FX
Flight time 3h 9m
Altitude 24000
Route LUXTO N92 ZESPE/N0454F360 DCT PACSE DCT TONQU DCT SALCO/N0452F370 DCT IBISU DCT ERWAN DCT BALDA DCT BATAX DCT PINOX DCT TOFEF DCT ALAGU DCT UBESO DCT AMSEL UR722 MABAP
Aircraft B38M/M-SDE1FGHILORVWXY/HB1

Departure

Time 2026-05-08 08:42
Airport Birmingham Airport (EGBB)

Arrival

Time 2026-05-08 11:52
Airport Marrakesh Menara Airport (GMMX)
Time Latitude Longitude Altitude Speed Heading
2026-05-08 08:03 52.45457 -1.73424 326 ft 0 kts 146°
2026-05-08 08:05 52.45454 -1.73420 325 ft 0 kts 146°
2026-05-08 08:33 52.45472 -1.73440 322 ft 3 kts 146°
2026-05-08 08:33 52.45491 -1.73459 323 ft 4 kts 158°
2026-05-08 08:34 52.45515 -1.73465 324 ft 4 kts 195°
2026-05-08 08:34 52.45534 -1.73444 326 ft 3 kts 236°
2026-05-08 08:34 52.45549 -1.73408 323 ft 3 kts 236°
2026-05-08 08:34 52.45550 -1.73404 322 ft 0 kts 236°
2026-05-08 08:37 52.45541 -1.73428 324 ft 7 kts 236°
2026-05-08 08:37 52.45500 -1.73525 325 ft 12 kts 236°
2026-05-08 08:38 52.45448 -1.73651 326 ft 14 kts 236°
2026-05-08 08:38 52.45388 -1.73794 323 ft 16 kts 236°
2026-05-08 08:38 52.45334 -1.73925 326 ft 10 kts 236°
2026-05-08 08:38 52.45316 -1.74045 324 ft 12 kts 284°
2026-05-08 08:39 52.45354 -1.74179 325 ft 14 kts 297°
2026-05-08 08:39 52.45401 -1.74331 325 ft 16 kts 297°
2026-05-08 08:39 52.45453 -1.74502 324 ft 18 kts 297°
2026-05-08 08:39 52.45542 -1.74650 325 ft 20 kts 327°
2026-05-08 08:40 52.45671 -1.74793 317 ft 25 kts 326°
2026-05-08 08:40 52.45822 -1.74961 312 ft 26 kts 326°
2026-05-08 08:40 52.45983 -1.75138 309 ft 27 kts 326°
2026-05-08 08:40 52.46131 -1.75301 308 ft 23 kts 326°
2026-05-08 08:41 52.46213 -1.75424 305 ft 13 kts 287°
2026-05-08 08:41 52.46189 -1.75532 311 ft 9 kts 237°
2026-05-08 08:41 52.46156 -1.75605 312 ft 8 kts 219°
2026-05-08 08:41 52.46098 -1.75591 312 ft 10 kts 148°
2026-05-08 08:42 52.45850 -1.75312 322 ft 85 kts 145°
2026-05-08 08:42 52.45140 -1.74518 351 ft 156 kts 145°
2026-05-08 08:42 52.44124 -1.73450 897 ft 188 kts 146°
2026-05-08 08:42 52.43050 -1.72257 1972 ft 194 kts 146°
2026-05-08 08:43 52.41878 -1.70972 2891 ft 209 kts 151°
2026-05-08 08:43 52.40462 -1.70267 3866 ft 217 kts 172°
2026-05-08 08:43 52.38948 -1.69986 4908 ft 223 kts 173°
2026-05-08 08:43 52.37356 -1.69979 5592 ft 235 kts 192°
2026-05-08 08:44 52.35928 -1.71222 5716 ft 237 kts 220°
2026-05-08 08:44 52.34760 -1.73164 5877 ft 243 kts 222°
2026-05-08 08:44 52.33519 -1.75192 6009 ft 258 kts 222°
2026-05-08 08:44 52.32231 -1.77276 6131 ft 264 kts 222°
2026-05-08 08:45 52.30911 -1.79396 6258 ft 266 kts 222°
2026-05-08 08:45 52.29606 -1.81491 6385 ft 267 kts 222°
2026-05-08 08:45 52.28276 -1.83621 6504 ft 268 kts 222°
2026-05-08 08:45 52.26949 -1.85745 6620 ft 268 kts 222°
2026-05-08 08:46 52.25605 -1.87892 7072 ft 269 kts 222°
2026-05-08 08:46 52.24288 -1.89999 8282 ft 266 kts 223°
2026-05-08 08:46 52.22950 -1.92133 9222 ft 273 kts 223°
2026-05-08 08:46 52.21588 -1.94304 10257 ft 274 kts 223°
2026-05-08 08:47 52.20216 -1.96489 11165 ft 278 kts 223°
2026-05-08 08:47 52.18818 -1.98712 12068 ft 282 kts 223°
2026-05-08 08:47 52.17406 -2.00955 12968 ft 286 kts 223°
2026-05-08 08:47 52.15967 -2.03240 13816 ft 291 kts 223°
2026-05-08 08:48 52.14506 -2.05553 14578 ft 294 kts 223°
2026-05-08 08:48 52.13013 -2.07813 15195 ft 303 kts 222°
2026-05-08 08:48 52.11395 -2.10258 15485 ft 323 kts 222°
2026-05-08 08:48 52.09723 -2.12786 15736 ft 342 kts 222°
2026-05-08 08:49 52.07911 -2.15523 16071 ft 358 kts 222°
2026-05-08 08:49 52.06089 -2.18275 16580 ft 365 kts 222°
2026-05-08 08:49 52.04227 -2.21083 17311 ft 368 kts 222°
2026-05-08 08:49 52.02330 -2.23940 17822 ft 377 kts 223°
2026-05-08 08:50 52.00369 -2.26892 17937 ft 394 kts 223°
2026-05-08 08:50 51.98316 -2.29976 18133 ft 408 kts 223°
2026-05-08 08:50 51.96208 -2.33135 18573 ft 413 kts 222°
2026-05-08 08:50 51.94093 -2.36299 19107 ft 416 kts 222°
2026-05-08 08:51 51.91949 -2.39502 19583 ft 420 kts 223°
2026-05-08 08:51 51.89786 -2.42730 20081 ft 424 kts 223°
2026-05-08 08:51 51.87613 -2.45968 20554 ft 427 kts 223°
2026-05-08 08:51 51.85411 -2.49243 21019 ft 431 kts 223°
2026-05-08 08:52 51.83192 -2.52541 21488 ft 434 kts 223°
2026-05-08 08:52 51.80899 -2.55729 21937 ft 438 kts 219°
2026-05-08 08:52 51.78551 -2.58817 22375 ft 442 kts 219°
2026-05-08 08:52 51.76156 -2.61939 22820 ft 445 kts 219°
2026-05-08 08:53 51.73718 -2.65067 23254 ft 449 kts 219°
2026-05-08 08:53 51.71234 -2.68265 23687 ft 452 kts 219°
2026-05-08 08:53 51.68801 -2.71396 24048 ft 455 kts 219°
2026-05-08 08:53 51.66323 -2.74581 24415 ft 458 kts 219°
2026-05-08 08:54 51.63820 -2.77793 24785 ft 460 kts 220°
2026-05-08 08:54 51.61313 -2.81007 25146 ft 463 kts 220°
2026-05-08 08:54 51.58781 -2.84247 25519 ft 465 kts 220°
2026-05-08 08:54 51.56246 -2.87488 25888 ft 468 kts 220°
2026-05-08 08:55 51.53686 -2.90754 26207 ft 470 kts 220°
2026-05-08 08:55 51.51125 -2.94017 26563 ft 471 kts 220°
2026-05-08 08:55 51.49422 -2.96184 26844 ft 471 kts 221°
2026-05-08 08:55 51.46852 -2.99452 27316 ft 470 kts 221°
2026-05-08 08:56 51.44300 -3.02691 27786 ft 468 kts 221°
2026-05-08 08:56 51.41745 -3.05928 28253 ft 466 kts 221°
2026-05-08 08:56 51.39145 -3.09050 28708 ft 468 kts 214°
2026-05-08 08:56 51.36175 -3.11192 29185 ft 473 kts 199°
2026-05-08 08:57 51.32921 -3.12180 29644 ft 476 kts 192°
2026-05-08 08:57 51.29631 -3.12934 30036 ft 477 kts 192°
2026-05-08 08:57 51.26389 -3.13641 30389 ft 477 kts 191°
2026-05-08 08:57 51.23084 -3.14332 30758 ft 476 kts 191°
2026-05-08 08:58 51.19825 -3.15001 31124 ft 474 kts 192°
2026-05-08 08:58 51.16560 -3.15667 31484 ft 473 kts 192°
2026-05-08 08:58 51.13250 -3.16340 31862 ft 472 kts 192°
2026-05-08 08:58 51.10037 -3.16991 32207 ft 472 kts 192°
2026-05-08 08:59 51.06780 -3.17651 32583 ft 470 kts 192°
2026-05-08 08:59 51.03544 -3.18306 32948 ft 469 kts 192°
2026-05-08 08:59 51.00314 -3.18958 33300 ft 468 kts 192°
2026-05-08 08:59 50.97080 -3.19610 33660 ft 467 kts 192°
2026-05-08 09:00 50.93866 -3.20257 34012 ft 466 kts 192°
2026-05-08 09:00 50.90646 -3.20904 34325 ft 465 kts 192°
2026-05-08 09:00 50.87446 -3.21546 34622 ft 464 kts 192°
2026-05-08 09:00 50.84227 -3.22191 34923 ft 463 kts 192°
2026-05-08 09:01 50.81042 -3.22830 35223 ft 462 kts 192°
2026-05-08 09:01 50.77863 -3.23466 35520 ft 461 kts 192°
2026-05-08 09:01 50.74678 -3.24102 35823 ft 460 kts 192°
2026-05-08 09:01 50.71496 -3.24737 36012 ft 460 kts 192°
2026-05-08 09:02 50.65160 -3.25999 36019 ft 457 kts 192°
2026-05-08 09:02 50.58848 -3.27253 36018 ft 457 kts 192°
2026-05-08 09:03 50.52546 -3.28501 36019 ft 457 kts 192°
2026-05-08 09:03 50.46233 -3.29747 36017 ft 457 kts 192°
2026-05-08 09:04 50.39960 -3.30984 36019 ft 457 kts 192°
2026-05-08 09:04 50.33793 -3.33050 36020 ft 453 kts 197°
2026-05-08 09:05 50.27629 -3.35146 36022 ft 453 kts 197°
2026-05-08 09:05 50.21450 -3.37210 36024 ft 453 kts 197°
2026-05-08 09:06 50.15284 -3.39261 36022 ft 453 kts 197°
2026-05-08 09:06 50.09120 -3.41306 36028 ft 453 kts 197°
2026-05-08 09:07 50.02958 -3.43346 36028 ft 453 kts 196°
2026-05-08 09:07 49.96828 -3.45369 36031 ft 452 kts 196°
2026-05-08 09:08 49.90672 -3.47396 36031 ft 452 kts 196°
2026-05-08 09:08 49.84517 -3.49416 36029 ft 448 kts 196°
2026-05-08 09:09 49.78435 -3.51409 36030 ft 446 kts 196°
2026-05-08 09:09 49.72408 -3.53626 36032 ft 443 kts 201°
2026-05-08 09:10 49.66477 -3.56322 36027 ft 443 kts 200°
2026-05-08 09:10 49.60585 -3.58925 36026 ft 443 kts 200°
2026-05-08 09:11 49.54659 -3.61529 36026 ft 442 kts 200°
2026-05-08 09:11 49.48738 -3.64121 36026 ft 442 kts 200°
2026-05-08 09:12 49.42822 -3.66706 36024 ft 442 kts 200°
2026-05-08 09:12 49.36909 -3.69283 36025 ft 442 kts 200°
2026-05-08 09:13 49.30998 -3.71852 36019 ft 441 kts 200°
2026-05-08 09:13 49.25088 -3.74415 36022 ft 441 kts 200°
2026-05-08 09:14 49.19179 -3.76970 36017 ft 441 kts 200°
2026-05-08 09:14 49.13272 -3.79519 36018 ft 441 kts 200°
2026-05-08 09:15 49.07366 -3.82062 36020 ft 441 kts 200°
2026-05-08 09:15 49.01459 -3.84598 36019 ft 441 kts 200°
2026-05-08 09:16 48.95587 -3.87112 36014 ft 441 kts 199°
2026-05-08 09:16 48.89681 -3.89636 36010 ft 441 kts 199°
2026-05-08 09:17 48.83776 -3.92152 36009 ft 441 kts 199°
2026-05-08 09:17 48.77858 -3.94668 36000 ft 441 kts 199°
2026-05-08 09:18 48.71954 -3.97171 35997 ft 440 kts 199°
2026-05-08 09:18 48.66051 -3.99669 35996 ft 440 kts 199°
2026-05-08 09:19 48.60152 -4.02159 35988 ft 440 kts 199°
2026-05-08 09:19 48.54245 -4.04646 35990 ft 440 kts 199°
2026-05-08 09:20 48.48353 -4.07120 35989 ft 439 kts 199°
2026-05-08 09:20 48.42467 -4.09587 35994 ft 439 kts 199°
2026-05-08 09:21 48.36629 -4.12027 35987 ft 439 kts 199°
2026-05-08 09:23 48.16063 -4.20576 35969 ft 437 kts 199°
2026-05-08 09:23 48.10197 -4.23002 35963 ft 437 kts 198°
2026-05-08 09:24 48.04338 -4.25419 35965 ft 436 kts 198°
2026-05-08 09:24 47.98507 -4.27819 35966 ft 436 kts 198°
2026-05-08 09:25 47.92654 -4.30222 35966 ft 436 kts 198°
2026-05-08 09:25 47.86801 -4.32620 35963 ft 436 kts 198°
2026-05-08 09:26 47.80941 -4.35015 35961 ft 436 kts 198°
2026-05-08 09:26 47.75096 -4.37398 35962 ft 435 kts 198°
2026-05-08 09:27 47.69252 -4.39775 35965 ft 435 kts 198°
2026-05-08 09:27 47.63411 -4.42146 35960 ft 435 kts 198°
2026-05-08 09:28 47.57606 -4.44496 35958 ft 435 kts 198°
2026-05-08 09:28 47.51770 -4.46854 35954 ft 435 kts 198°
2026-05-08 09:29 47.45936 -4.49205 35951 ft 434 kts 198°
2026-05-08 09:29 47.40094 -4.51554 35950 ft 434 kts 198°
2026-05-08 09:30 47.34266 -4.53893 35950 ft 434 kts 197°
2026-05-08 09:30 47.28442 -4.56225 35950 ft 434 kts 197°
2026-05-08 09:31 47.22618 -4.58552 35947 ft 433 kts 197°
2026-05-08 09:31 47.16801 -4.60871 35944 ft 433 kts 197°
2026-05-08 09:32 47.10984 -4.63184 35942 ft 433 kts 197°
2026-05-08 09:32 47.05316 -4.66032 35937 ft 432 kts 201°
2026-05-08 09:33 46.99691 -4.68948 35944 ft 431 kts 201°
2026-05-08 09:33 46.94017 -4.71855 35938 ft 431 kts 201°
2026-05-08 09:34 46.88368 -4.74739 35933 ft 431 kts 200°
2026-05-08 09:34 46.82701 -4.77626 35933 ft 430 kts 200°
2026-05-08 09:35 46.77048 -4.80499 35933 ft 430 kts 200°
2026-05-08 09:35 46.71399 -4.83364 35931 ft 430 kts 200°
2026-05-08 09:36 46.65753 -4.86220 35930 ft 429 kts 200°
2026-05-08 09:36 46.60100 -4.89074 35922 ft 429 kts 200°
2026-05-08 09:37 46.54495 -4.91898 35925 ft 429 kts 200°
2026-05-08 09:37 46.48873 -4.94724 35918 ft 428 kts 200°
2026-05-08 09:38 46.43243 -4.97548 35921 ft 428 kts 200°
2026-05-08 09:38 46.37618 -5.00363 35914 ft 427 kts 200°
2026-05-08 09:39 46.31984 -5.03177 35912 ft 427 kts 200°
2026-05-08 09:39 46.26364 -5.05977 35908 ft 427 kts 200°
2026-05-08 09:40 46.20745 -5.08771 35908 ft 427 kts 199°
2026-05-08 09:40 46.15129 -5.11557 35902 ft 427 kts 199°
2026-05-08 09:41 46.09504 -5.14342 35904 ft 426 kts 199°
2026-05-08 09:41 46.03935 -5.17093 35899 ft 426 kts 199°
2026-05-08 09:42 45.98325 -5.19860 35894 ft 426 kts 199°
2026-05-08 09:42 45.92659 -5.22399 35888 ft 426 kts 191°
2026-05-08 09:43 45.87810 -5.23638 35893 ft 427 kts 191°
2026-05-08 09:43 45.81967 -5.25133 35886 ft 426 kts 191°
2026-05-08 09:44 45.76131 -5.26619 35886 ft 426 kts 191°
2026-05-08 09:44 45.69341 -5.28344 35882 ft 426 kts 191°
2026-05-08 09:45 45.64487 -5.29574 35881 ft 425 kts 190°
2026-05-08 09:45 45.58658 -5.31048 35880 ft 425 kts 190°
2026-05-08 09:46 45.52832 -5.32519 35876 ft 425 kts 190°
2026-05-08 09:46 45.46998 -5.33989 35875 ft 425 kts 190°
2026-05-08 09:47 45.41179 -5.35451 35874 ft 424 kts 190°
2026-05-08 09:47 45.35364 -5.36910 35871 ft 424 kts 190°
2026-05-08 09:48 45.29555 -5.38364 35866 ft 424 kts 190°
2026-05-08 09:48 45.23739 -5.39816 35869 ft 423 kts 190°
2026-05-08 09:49 45.17937 -5.41262 35866 ft 423 kts 190°
2026-05-08 09:49 45.12174 -5.42697 35865 ft 423 kts 189°
2026-05-08 09:50 45.06379 -5.44135 35867 ft 423 kts 189°
2026-05-08 09:50 45.00586 -5.45570 35865 ft 423 kts 189°
2026-05-08 09:51 44.94781 -5.47005 35863 ft 423 kts 189°
2026-05-08 09:51 44.89021 -5.48426 35863 ft 423 kts 189°
2026-05-08 09:52 44.83227 -5.49853 35865 ft 423 kts 189°
2026-05-08 09:52 44.77432 -5.51277 35868 ft 423 kts 189°
2026-05-08 09:53 44.71632 -5.52699 35864 ft 423 kts 189°
2026-05-08 09:53 44.65828 -5.54120 35863 ft 423 kts 189°
2026-05-08 09:54 44.60051 -5.55721 35859 ft 424 kts 196°
2026-05-08 09:54 44.54388 -5.58035 35865 ft 424 kts 194°
2026-05-08 09:55 44.48691 -5.60242 35864 ft 424 kts 194°
2026-05-08 09:55 44.42999 -5.62425 35866 ft 424 kts 194°
2026-05-08 09:56 44.37308 -5.64603 35866 ft 424 kts 194°
2026-05-08 09:56 44.31619 -5.66775 35869 ft 424 kts 194°
2026-05-08 09:57 44.23131 -5.70008 35870 ft 423 kts 194°
2026-05-08 09:57 44.17449 -5.72166 35870 ft 423 kts 194°
2026-05-08 09:58 44.11771 -5.74318 35876 ft 423 kts 194°
2026-05-08 09:58 44.06097 -5.76465 35879 ft 422 kts 194°
2026-05-08 09:59 44.00416 -5.78611 35883 ft 422 kts 193°
2026-05-08 09:59 43.94749 -5.80746 35877 ft 422 kts 193°
2026-05-08 10:00 43.89082 -5.82877 35872 ft 422 kts 193°
2026-05-08 10:00 43.83413 -5.85005 35879 ft 422 kts 193°
2026-05-08 10:01 43.77731 -5.87134 35882 ft 422 kts 193°
2026-05-08 10:01 43.72059 -5.89255 35879 ft 422 kts 193°
2026-05-08 10:02 43.66415 -5.91361 35882 ft 423 kts 193°
2026-05-08 10:02 43.60734 -5.93477 35891 ft 423 kts 193°
2026-05-08 10:03 43.55047 -5.95591 35892 ft 423 kts 193°
2026-05-08 10:03 43.49358 -5.97701 35891 ft 423 kts 193°
2026-05-08 10:04 43.43663 -5.99810 35879 ft 424 kts 193°
2026-05-08 10:04 43.37965 -6.01916 35879 ft 424 kts 193°
2026-05-08 10:05 43.32265 -6.04018 35878 ft 424 kts 193°
2026-05-08 10:05 43.26563 -6.06117 35879 ft 424 kts 193°
2026-05-08 10:06 43.20857 -6.08213 35885 ft 424 kts 193°
2026-05-08 10:06 43.15187 -6.10292 35889 ft 424 kts 193°
2026-05-08 10:07 43.09485 -6.12379 35893 ft 424 kts 193°
2026-05-08 10:07 43.03784 -6.14462 35898 ft 424 kts 193°
2026-05-08 10:08 42.98082 -6.16540 35902 ft 424 kts 193°
2026-05-08 10:08 42.92375 -6.18616 35900 ft 424 kts 193°
2026-05-08 10:09 42.86657 -6.20694 35911 ft 425 kts 193°
2026-05-08 10:09 42.80941 -6.22765 35912 ft 425 kts 193°
2026-05-08 10:10 42.75230 -6.24831 35913 ft 425 kts 193°
2026-05-08 10:10 42.69506 -6.26898 35917 ft 426 kts 193°
2026-05-08 10:11 42.63776 -6.28963 35923 ft 427 kts 193°
2026-05-08 10:11 42.58026 -6.31032 35917 ft 426 kts 193°
2026-05-08 10:12 42.52284 -6.33093 35926 ft 427 kts 193°
2026-05-08 10:12 42.46548 -6.35149 35922 ft 427 kts 193°
2026-05-08 10:13 42.40830 -6.37194 35931 ft 428 kts 193°
2026-05-08 10:13 42.35061 -6.39254 35920 ft 428 kts 193°
2026-05-08 10:14 42.29296 -6.41308 35919 ft 429 kts 193°
2026-05-08 10:14 42.23532 -6.43358 35912 ft 429 kts 193°
2026-05-08 10:15 42.17755 -6.45409 35938 ft 430 kts 193°
2026-05-08 10:15 42.11948 -6.47466 35916 ft 430 kts 193°
2026-05-08 10:16 42.06146 -6.49518 35923 ft 431 kts 193°
2026-05-08 10:16 42.00335 -6.51568 35926 ft 432 kts 193°
2026-05-08 10:17 41.94517 -6.53619 35936 ft 433 kts 193°
2026-05-08 10:17 41.88687 -6.55670 35921 ft 433 kts 193°
2026-05-08 10:18 41.82889 -6.57705 35919 ft 434 kts 193°
2026-05-08 10:18 41.77042 -6.59754 35920 ft 434 kts 194°
2026-05-08 10:19 41.71185 -6.61804 35914 ft 435 kts 194°
2026-05-08 10:20 41.62382 -6.64908 35921 ft 436 kts 194°
2026-05-08 10:20 41.56505 -6.66977 35920 ft 437 kts 194°
2026-05-08 10:21 41.50613 -6.69048 35917 ft 438 kts 194°
2026-05-08 10:21 41.44754 -6.71103 35917 ft 438 kts 195°
2026-05-08 10:22 41.38852 -6.73168 35919 ft 439 kts 195°
2026-05-08 10:22 41.32935 -6.75236 35920 ft 440 kts 195°
2026-05-08 10:23 41.26998 -6.77307 35925 ft 441 kts 195°
2026-05-08 10:23 41.21059 -6.79375 35913 ft 441 kts 195°
2026-05-08 10:24 41.15113 -6.81440 35927 ft 442 kts 195°
2026-05-08 10:24 41.09158 -6.83506 35914 ft 442 kts 195°
2026-05-08 10:25 41.03199 -6.85569 35919 ft 443 kts 195°
2026-05-08 10:25 40.97267 -6.87618 35931 ft 443 kts 196°
2026-05-08 10:26 40.91296 -6.89678 35921 ft 444 kts 196°
2026-05-08 10:26 40.85315 -6.91737 35924 ft 444 kts 196°
2026-05-08 10:27 40.79333 -6.93792 35923 ft 444 kts 197°
2026-05-08 10:27 40.73345 -6.95845 35930 ft 445 kts 197°
2026-05-08 10:28 40.67355 -6.97896 35926 ft 445 kts 198°
2026-05-08 10:28 40.61356 -6.99946 35928 ft 445 kts 198°
2026-05-08 10:29 40.55358 -7.01991 35930 ft 445 kts 198°
2026-05-08 10:29 40.50361 -7.03693 35940 ft 446 kts 198°
2026-05-08 10:30 40.43375 -7.06067 35936 ft 446 kts 198°
2026-05-08 10:30 40.38350 -7.07772 35938 ft 446 kts 198°
2026-05-08 10:31 40.32365 -7.09800 35933 ft 446 kts 198°
2026-05-08 10:31 40.26352 -7.11845 35940 ft 446 kts 199°
2026-05-08 10:32 40.20329 -7.13900 35934 ft 446 kts 199°
2026-05-08 10:32 40.14312 -7.15947 35942 ft 447 kts 199°
2026-05-08 10:33 40.08329 -7.17980 35942 ft 447 kts 199°
2026-05-08 10:33 40.02302 -7.20023 35940 ft 448 kts 199°
2026-05-08 10:34 39.96262 -7.22068 35942 ft 448 kts 199°
2026-05-08 10:34 39.90227 -7.24106 35941 ft 448 kts 199°
2026-05-08 10:35 39.84191 -7.26142 35938 ft 448 kts 199°
2026-05-08 10:35 39.78151 -7.28175 35934 ft 448 kts 200°
2026-05-08 10:36 39.72111 -7.30205 35935 ft 448 kts 200°
2026-05-08 10:36 39.66066 -7.32232 35941 ft 449 kts 200°
2026-05-08 10:37 39.60060 -7.34243 35935 ft 448 kts 200°
2026-05-08 10:37 39.54015 -7.36262 35935 ft 449 kts 199°
2026-05-08 10:38 39.47795 -7.37523 35927 ft 454 kts 194°
2026-05-08 10:38 39.41533 -7.38632 35936 ft 454 kts 194°
2026-05-08 10:39 39.35272 -7.39729 35939 ft 454 kts 194°
2026-05-08 10:39 39.28995 -7.40825 35927 ft 454 kts 194°
2026-05-08 10:40 39.22737 -7.41917 35933 ft 454 kts 194°
2026-05-08 10:40 39.16463 -7.43009 35935 ft 454 kts 194°
2026-05-08 10:41 39.10219 -7.44094 35934 ft 454 kts 194°
2026-05-08 10:41 39.03998 -7.45173 35932 ft 453 kts 194°
2026-05-08 10:42 38.97743 -7.46257 35928 ft 454 kts 194°
2026-05-08 10:42 38.91485 -7.47338 35934 ft 454 kts 194°
2026-05-08 10:43 38.85217 -7.48420 35930 ft 453 kts 195°
2026-05-08 10:43 38.78973 -7.49496 35935 ft 453 kts 195°
2026-05-08 10:44 38.72722 -7.50571 35928 ft 453 kts 195°
2026-05-08 10:44 38.66469 -7.51644 35930 ft 453 kts 195°
2026-05-08 10:45 38.60258 -7.52709 35930 ft 453 kts 195°
2026-05-08 10:45 38.54005 -7.53777 35929 ft 453 kts 195°
2026-05-08 10:46 38.47742 -7.54847 35927 ft 453 kts 195°
2026-05-08 10:46 38.41485 -7.55914 35932 ft 454 kts 195°
2026-05-08 10:47 38.35233 -7.56978 35927 ft 453 kts 195°
2026-05-08 10:47 38.28974 -7.58041 35936 ft 454 kts 195°
2026-05-08 10:48 38.22755 -7.59096 35930 ft 453 kts 195°
2026-05-08 10:48 38.16498 -7.60154 35939 ft 453 kts 195°
2026-05-08 10:49 38.10242 -7.61212 35940 ft 454 kts 195°
2026-05-08 10:49 38.03941 -7.62163 35940 ft 455 kts 194°
2026-05-08 10:50 37.97664 -7.63111 35934 ft 455 kts 194°
2026-05-08 10:50 37.91353 -7.64064 35939 ft 456 kts 194°
2026-05-08 10:51 37.85054 -7.65015 35937 ft 456 kts 194°
2026-05-08 10:51 37.78748 -7.65964 35941 ft 456 kts 194°
2026-05-08 10:52 37.72483 -7.66905 35931 ft 456 kts 194°
2026-05-08 10:52 37.66158 -7.67854 35935 ft 457 kts 194°
2026-05-08 10:53 37.59845 -7.68800 35940 ft 457 kts 194°
2026-05-08 10:53 37.53527 -7.69744 35943 ft 457 kts 194°
2026-05-08 10:54 37.47208 -7.70687 35946 ft 457 kts 194°
2026-05-08 10:54 37.40867 -7.71632 35945 ft 458 kts 194°
2026-05-08 10:55 37.34578 -7.72568 35946 ft 458 kts 194°
2026-05-08 10:55 37.28249 -7.73508 35944 ft 458 kts 194°
2026-05-08 10:56 37.21912 -7.74447 35937 ft 459 kts 194°
2026-05-08 10:56 37.15566 -7.75387 35945 ft 459 kts 194°
2026-05-08 10:57 37.09207 -7.76326 35941 ft 459 kts 195°
2026-05-08 10:57 36.99679 -7.77731 35940 ft 460 kts 194°
2026-05-08 10:58 36.93319 -7.78666 35942 ft 460 kts 194°
2026-05-08 10:58 36.86954 -7.79601 35946 ft 460 kts 194°
2026-05-08 10:59 36.80585 -7.80536 35951 ft 461 kts 194°
2026-05-08 10:59 36.74184 -7.81388 35953 ft 464 kts 191°
2026-05-08 11:00 36.67747 -7.81935 35963 ft 465 kts 192°
2026-05-08 11:00 36.61335 -7.82514 35963 ft 465 kts 192°
2026-05-08 11:01 36.54881 -7.83099 35962 ft 465 kts 192°
2026-05-08 11:01 36.48410 -7.83685 35962 ft 465 kts 192°
2026-05-08 11:02 36.38715 -7.84561 35957 ft 466 kts 192°
2026-05-08 11:03 36.32247 -7.85144 35953 ft 465 kts 192°
2026-05-08 11:03 36.25774 -7.85727 35965 ft 467 kts 192°
2026-05-08 11:04 36.19300 -7.86309 35969 ft 466 kts 192°
2026-05-08 11:04 36.12877 -7.86886 35963 ft 465 kts 192°
2026-05-08 11:05 36.06419 -7.87464 35965 ft 465 kts 192°
2026-05-08 11:05 35.99979 -7.88039 35974 ft 464 kts 192°
2026-05-08 11:06 35.93482 -7.88027 35973 ft 472 kts 183°
2026-05-08 11:06 35.86936 -7.87446 35963 ft 472 kts 183°
2026-05-08 11:07 35.80378 -7.86852 35963 ft 471 kts 183°
2026-05-08 11:07 35.73860 -7.86262 35959 ft 470 kts 183°
2026-05-08 11:08 35.67332 -7.85671 35964 ft 470 kts 183°
2026-05-08 11:08 35.60844 -7.85085 35960 ft 469 kts 183°
2026-05-08 11:09 35.54332 -7.84498 35963 ft 469 kts 183°
2026-05-08 11:09 35.47834 -7.83913 35961 ft 468 kts 183°
2026-05-08 11:10 35.41339 -7.83335 35964 ft 467 kts 184°
2026-05-08 11:10 35.34859 -7.82789 35961 ft 467 kts 184°
2026-05-08 11:11 35.28368 -7.82240 35964 ft 466 kts 184°
2026-05-08 11:11 35.21942 -7.81697 35965 ft 465 kts 184°
2026-05-08 11:12 35.15479 -7.81152 35971 ft 465 kts 184°
2026-05-08 11:12 35.09028 -7.80609 35962 ft 465 kts 184°
2026-05-08 11:13 35.02578 -7.80067 35960 ft 464 kts 184°
2026-05-08 11:13 34.96143 -7.79527 35970 ft 463 kts 184°
2026-05-08 11:14 34.89709 -7.78988 35968 ft 463 kts 184°
2026-05-08 11:14 34.83289 -7.78451 35963 ft 462 kts 184°
2026-05-08 11:15 34.76870 -7.77915 35964 ft 462 kts 184°
2026-05-08 11:15 34.70468 -7.77450 35968 ft 461 kts 184°
2026-05-08 11:16 34.64056 -7.77001 35967 ft 460 kts 184°
2026-05-08 11:16 34.58754 -7.76629 35968 ft 459 kts 184°
2026-05-08 11:17 34.51287 -7.76105 35965 ft 459 kts 184°
2026-05-08 11:17 34.44955 -7.75662 35962 ft 458 kts 184°
2026-05-08 11:18 34.38587 -7.75217 35968 ft 458 kts 184°
2026-05-08 11:18 34.32235 -7.74773 35965 ft 457 kts 184°
2026-05-08 11:19 34.25884 -7.74331 35966 ft 457 kts 184°
2026-05-08 11:19 34.20571 -7.73961 35966 ft 456 kts 184°
2026-05-08 11:20 34.14227 -7.73384 35967 ft 457 kts 183°
2026-05-08 11:20 34.07945 -7.72804 35962 ft 456 kts 183°
2026-05-08 11:21 34.01602 -7.72222 35970 ft 456 kts 183°
2026-05-08 11:21 33.95284 -7.71643 35954 ft 455 kts 183°
2026-05-08 11:22 33.88967 -7.71065 35952 ft 455 kts 183°
2026-05-08 11:22 33.82661 -7.70489 35942 ft 454 kts 183°
2026-05-08 11:23 33.76359 -7.69915 35941 ft 454 kts 183°
2026-05-08 11:23 33.70053 -7.69341 35939 ft 453 kts 183°
2026-05-08 11:24 33.63801 -7.68772 35935 ft 453 kts 183°
2026-05-08 11:24 33.57523 -7.68202 35941 ft 452 kts 183°
2026-05-08 11:25 33.51428 -7.68775 35941 ft 427 kts 207°
2026-05-08 11:25 33.46136 -7.71838 35937 ft 422 kts 213°
2026-05-08 11:25 33.43568 -7.73466 35958 ft 408 kts 215°
2026-05-08 11:26 33.41131 -7.75040 35956 ft 388 kts 216°
2026-05-08 11:26 33.36494 -7.78092 35941 ft 380 kts 216°
2026-05-08 11:27 33.31859 -7.81159 35937 ft 381 kts 216°
2026-05-08 11:27 33.27214 -7.84230 35936 ft 382 kts 216°
2026-05-08 11:28 33.22561 -7.87302 35938 ft 382 kts 216°
2026-05-08 11:28 33.17905 -7.90377 35936 ft 383 kts 216°
2026-05-08 11:29 33.13239 -7.93448 35933 ft 383 kts 216°
2026-05-08 11:29 33.08581 -7.96512 35449 ft 380 kts 216°
2026-05-08 11:29 33.06245 -7.98047 34550 ft 385 kts 215°
2026-05-08 11:30 33.03885 -7.99597 33747 ft 387 kts 215°
2026-05-08 11:30 33.01518 -8.01151 32903 ft 388 kts 215°
2026-05-08 11:30 32.99187 -8.02681 32122 ft 388 kts 215°
2026-05-08 11:30 32.96793 -8.04252 31394 ft 387 kts 215°
2026-05-08 11:31 32.94458 -8.05743 30696 ft 388 kts 211°
2026-05-08 11:31 32.91806 -8.06659 29828 ft 406 kts 197°
2026-05-08 11:31 32.89023 -8.07142 29167 ft 402 kts 197°
2026-05-08 11:31 32.86271 -8.07635 28573 ft 397 kts 197°
2026-05-08 11:32 32.83549 -8.08103 27964 ft 392 kts 196°
2026-05-08 11:32 32.80828 -8.08561 27332 ft 398 kts 195°
2026-05-08 11:32 32.78070 -8.09016 26704 ft 401 kts 195°
2026-05-08 11:32 32.75310 -8.09469 26080 ft 401 kts 195°
2026-05-08 11:33 32.72546 -8.09923 25454 ft 399 kts 194°
2026-05-08 11:33 32.69792 -8.10374 24760 ft 398 kts 194°
2026-05-08 11:33 32.67065 -8.10820 24213 ft 395 kts 194°
2026-05-08 11:33 32.64345 -8.11266 23641 ft 393 kts 194°
2026-05-08 11:34 32.61649 -8.11707 22981 ft 391 kts 193°
2026-05-08 11:34 32.58955 -8.12147 22353 ft 389 kts 193°
2026-05-08 11:34 32.56325 -8.12577 21782 ft 385 kts 193°
2026-05-08 11:34 32.53676 -8.13009 21216 ft 382 kts 193°
2026-05-08 11:35 32.51061 -8.13436 20667 ft 379 kts 193°
2026-05-08 11:35 32.48457 -8.13860 20122 ft 375 kts 193°
2026-05-08 11:35 32.45883 -8.14280 19588 ft 373 kts 192°
2026-05-08 11:35 32.43310 -8.14699 19048 ft 372 kts 192°
2026-05-08 11:36 32.40744 -8.15117 18513 ft 371 kts 192°
2026-05-08 11:36 32.38198 -8.15532 17951 ft 370 kts 192°
2026-05-08 11:36 32.35652 -8.15946 17391 ft 368 kts 192°
2026-05-08 11:36 32.33131 -8.16355 16866 ft 365 kts 191°
2026-05-08 11:37 32.30617 -8.16764 16360 ft 362 kts 191°
2026-05-08 11:37 32.28161 -8.17162 15863 ft 360 kts 191°
2026-05-08 11:37 32.25690 -8.17563 15370 ft 358 kts 191°
2026-05-08 11:37 32.23225 -8.17963 14904 ft 356 kts 191°
2026-05-08 11:38 32.20782 -8.18359 14429 ft 354 kts 191°
2026-05-08 11:38 32.18341 -8.18754 13953 ft 353 kts 191°
2026-05-08 11:38 32.15919 -8.19146 13454 ft 351 kts 191°
2026-05-08 11:38 32.13486 -8.19419 12914 ft 353 kts 180°
2026-05-08 11:39 32.11086 -8.18803 12425 ft 358 kts 161°
2026-05-08 11:39 32.08849 -8.17516 12019 ft 355 kts 157°
2026-05-08 11:39 32.06652 -8.16224 11580 ft 352 kts 157°
2026-05-08 11:39 32.04481 -8.14935 11264 ft 346 kts 156°
2026-05-08 11:40 32.02360 -8.13669 11124 ft 335 kts 156°
2026-05-08 11:40 32.00309 -8.12442 10976 ft 325 kts 156°
2026-05-08 11:40 31.98332 -8.11259 10809 ft 314 kts 156°
2026-05-08 11:40 31.96420 -8.10115 10663 ft 304 kts 156°
2026-05-08 11:41 31.94566 -8.09006 10528 ft 293 kts 156°
2026-05-08 11:41 31.92776 -8.07936 10388 ft 283 kts 156°
2026-05-08 11:41 31.91053 -8.06905 10243 ft 274 kts 156°
2026-05-08 11:41 31.89380 -8.05906 10115 ft 264 kts 157°
2026-05-08 11:42 31.87769 -8.04945 9933 ft 264 kts 156°
2026-05-08 11:42 31.86089 -8.03943 9627 ft 271 kts 156°
2026-05-08 11:42 31.84396 -8.02932 9304 ft 274 kts 156°
2026-05-08 11:42 31.82707 -8.01924 9009 ft 275 kts 156°
2026-05-08 11:43 31.81008 -8.00899 8707 ft 275 kts 153°
2026-05-08 11:43 31.79556 -7.99380 8332 ft 280 kts 130°
2026-05-08 11:43 31.78400 -7.97600 8060 ft 276 kts 130°
2026-05-08 11:43 31.77231 -7.95831 7800 ft 273 kts 130°
2026-05-08 11:44 31.76070 -7.94063 7499 ft 271 kts 130°
2026-05-08 11:44 31.74925 -7.92315 7213 ft 269 kts 130°
2026-05-08 11:44 31.73785 -7.90574 6933 ft 267 kts 129°
2026-05-08 11:44 31.72660 -7.88855 6641 ft 265 kts 129°
2026-05-08 11:45 31.71545 -7.87151 6398 ft 260 kts 130°
2026-05-08 11:45 31.70446 -7.85475 6090 ft 257 kts 129°
2026-05-08 11:45 31.69367 -7.83824 5812 ft 253 kts 128°
2026-05-08 11:45 31.68307 -7.82203 5654 ft 246 kts 128°
2026-05-08 11:46 31.67285 -7.80644 5586 ft 234 kts 128°
2026-05-08 11:46 31.66164 -7.79328 5412 ft 226 kts 150°
2026-05-08 11:46 31.64708 -7.78791 5290 ft 216 kts 179°
2026-05-08 11:46 31.63260 -7.79082 5103 ft 210 kts 205°
2026-05-08 11:47 31.62058 -7.80005 5015 ft 201 kts 219°
2026-05-08 11:47 31.60854 -7.80757 4799 ft 201 kts 199°
2026-05-08 11:47 31.59651 -7.81495 4603 ft 193 kts 226°
2026-05-08 11:47 31.59025 -7.82829 4365 ft 186 kts 261°
2026-05-08 11:48 31.59011 -7.84304 4221 ft 179 kts 275°
2026-05-08 11:48 31.59126 -7.85723 4168 ft 173 kts 277°
2026-05-08 11:48 31.59247 -7.87127 3983 ft 173 kts 277°
2026-05-08 11:48 31.59370 -7.88522 3925 ft 171 kts 276°
2026-05-08 11:49 31.59490 -7.89913 3734 ft 173 kts 277°
2026-05-08 11:49 31.59615 -7.91310 3386 ft 170 kts 277°
2026-05-08 11:49 31.59732 -7.92632 3070 ft 156 kts 276°
2026-05-08 11:49 31.59841 -7.93828 2803 ft 141 kts 277°
2026-05-08 11:50 31.59929 -7.94948 2578 ft 137 kts 276°
2026-05-08 11:50 31.60026 -7.96064 2457 ft 139 kts 277°
2026-05-08 11:50 31.60123 -7.97194 2312 ft 139 kts 276°
2026-05-08 11:50 31.60225 -7.98316 2075 ft 139 kts 277°
2026-05-08 11:51 31.60324 -7.99451 1932 ft 140 kts 277°
2026-05-08 11:51 31.60424 -8.00585 1759 ft 140 kts 277°
2026-05-08 11:51 31.60521 -8.01720 1615 ft 140 kts 278°
2026-05-08 11:51 31.60624 -8.02870 1549 ft 133 kts 277°
2026-05-08 11:52 31.60705 -8.03755 1530 ft 72 kts 275°
2026-05-08 11:52 31.60742 -8.04229 1527 ft 42 kts 275°
2026-05-08 11:52 31.60701 -8.04386 1523 ft 17 kts 194°
2026-05-08 11:52 31.60671 -8.04391 1522 ft 5 kts 185°
2026-05-08 11:53 31.60629 -8.04395 1528 ft 9 kts 179°
2026-05-08 11:53 31.60581 -8.04335 1529 ft 12 kts 101°
2026-05-08 11:53 31.60569 -8.04236 1527 ft 13 kts 92°
2026-05-08 11:53 31.60560 -8.04129 1531 ft 14 kts 95°
2026-05-08 11:54 31.60552 -8.04009 1527 ft 15 kts 95°
2026-05-08 11:54 31.60541 -8.03880 1529 ft 17 kts 96°
2026-05-08 11:54 31.60529 -8.03740 1535 ft 18 kts 96°
2026-05-08 11:54 31.60514 -8.03592 1537 ft 19 kts 95°
2026-05-08 11:55 31.60501 -8.03436 1539 ft 20 kts 95°
2026-05-08 11:55 31.60487 -8.03272 1541 ft 21 kts 96°
2026-05-08 11:55 31.60472 -8.03100 1544 ft 22 kts 95°
2026-05-08 11:55 31.60456 -8.02930 1546 ft 14 kts 98°
2026-05-08 11:56 31.60444 -8.02809 1544 ft 16 kts 95°
2026-05-08 11:56 31.60438 -8.02705 1545 ft 7 kts 98°
2026-05-08 11:56 31.60406 -8.02670 1549 ft 7 kts 178°
2026-05-08 11:56 31.60354 -8.02676 1549 ft 7 kts 184°
2026-05-08 11:57 31.60340 -8.02678 1549 ft 3 kts 185°
2026-05-08 11:57 31.60319 -8.02680 1549 ft 2 kts 186°
2026-05-08 11:57 31.60318 -8.02680 1549 ft 0 kts 186°
2026-05-08 11:59 31.60364 -8.02721 1540 ft 0 kts 185°